Weather History for Holland, MI

Change the Weather History Date:

Monday, October 10, 2011

  Actual Average Record
Temperature  
Mean Temperature 64 °F 54 °F  
Max Temperature 77 °F 64 °F 85 °F (1949)
Min Temperature 51 °F 45 °F 28 °F (1956)
Degree Days  
Heating Degree Days 1 11  
Month to date heating degree days 97  
Since 1 July heating degree days 227  
Cooling Degree Days 0 1  
Month to date cooling degree days 10  
Year to date cooling degree days 692  
Growing Degree Days 13 (Base 50)    
Moisture  
Dew Point 49 °F    
Average Humidity 64    
Maximum Humidity 89    
Minimum Humidity 38    
Precipitation  
Precipitation 0.00 in 0.12 in 1.71 in (1990)
Month to date precipitation 0.00 1.00  
Year to date precipitation 28.11  
Sea Level Pressure  
Sea Level Pressure 30.20 in    
Wind  
Wind Speed 3 mph (SE)    
Max Wind Speed 14 mph    
Max Gust Speed 17 mph    
Visibility 9 miles    
Events      
T = Trace of Precipitation, MM = Missing Value Source: NWS Daily Summary

Daily Weather History Graph

Daily Weather History Graph

Search for Another Location

Airport:

Trip Planner

Search our weather history database for the weather conditions in past years. The results will help you decide how hot, cold, wet, or windy it might be!

Date:

Astronomy

Oct. 10, 2011 Rise Set
Actual Time 7:51 AM EDT 7:10 PM EDT
Civil Twilight 7:23 AM EDT 7:38 PM EDT
Nautical Twilight 6:50 AM EDT 8:11 PM EDT
Astronomical Twilight 6:17 AM EDT 8:44 PM EDT
Moon 6:14 PM EDT (10/10) 6:31 AM EDT (10/10)
Length of Visible Light 12h 15m
Length of Day
11h 19m
Waxing Gibbous, 98% of the Moon is Illuminated
Oct 10
Waxing Gibbous
Oct 11
Full
Oct 19
Last Quarter
Oct 26
New
Nov 2
First Quarter

Hourly Weather History & Observations

Time (EDT) Temp. Dew Point Humidity Pressure Visibility Wind Dir Wind Speed Gust Speed Precip Events Conditions
12:53 AM 54.0 °F 50.0 °F 86% 30.28 in 5.0 mi Calm Calm - N/A   Clear
1:53 AM 54.0 °F 50.0 °F 86% 30.27 in 6.0 mi Calm Calm - N/A   Clear
2:53 AM 55.9 °F 50.0 °F 80% 30.27 in 10.0 mi ESE 3.5 mph - N/A   Clear
3:53 AM 54.0 °F 48.9 °F 83% 30.27 in 9.0 mi ESE 3.5 mph - N/A   Clear
4:53 AM 53.1 °F 48.0 °F 83% 30.26 in 10.0 mi ESE 3.5 mph - N/A   Clear
5:53 AM 51.1 °F 46.0 °F 83% 30.25 in 9.0 mi East 4.6 mph - N/A   Clear
6:53 AM 53.1 °F 46.9 °F 80% 30.26 in 9.0 mi ESE 3.5 mph - N/A   Clear
7:53 AM 53.1 °F 46.9 °F 80% 30.26 in 9.0 mi Calm Calm - N/A   Clear
9:53 AM 60.1 °F 51.1 °F 72% 30.27 in 10.0 mi East 3.5 mph - N/A   Clear
11:53 AM 69.1 °F 51.1 °F 53% 30.23 in 10.0 mi ESE 6.9 mph - N/A   Clear
2:53 PM 73.9 °F 51.1 °F 45% 30.17 in 10.0 mi SE 12.7 mph - N/A   Clear
3:53 PM 75.9 °F 52.0 °F 43% 30.14 in 10.0 mi SSE 8.1 mph - N/A   Clear
4:53 PM 75.0 °F 48.9 °F 40% 30.12 in 10.0 mi SSE 10.4 mph - N/A   Clear
6:53 PM 72.0 °F 48.9 °F 44% 30.11 in 10.0 mi South 4.6 mph - N/A   Clear
7:53 PM 68.0 °F 48.9 °F 50% 30.12 in 7.0 mi SSE 3.5 mph - N/A   Clear
8:53 PM 60.1 °F 48.9 °F 67% 30.12 in 10.0 mi Calm Calm - N/A   Clear
9:53 PM 59.0 °F 50.0 °F 72% 30.12 in 10.0 mi Calm Calm - N/A   Clear
10:53 PM 57.9 °F 51.1 °F 78% 30.12 in 10.0 mi Calm Calm - N/A   Clear
11:53 PM 59.0 °F 50.0 °F 72% 30.11 in 10.0 mi SE 4.6 mph - N/A   Clear